Year,Month,Day,Hour,Minute,Value (Times are PST for temperature in C)
2011,10,01,16,46,14.00
2011,10,01,16,47,14.00
2011,10,01,16,48,14.00
2011,10,01,16,49,14.00
2011,10,01,16,50,14.00
2011,10,01,16,51,14.00
2011,10,01,16,52,14.00
2011,10,01,16,53,13.90
2011,10,01,16,54,13.90
2011,10,01,16,55,13.90
2011,10,01,16,56,13.80
2011,10,01,16,57,13.80
2011,10,01,16,58,13.70
2011,10,01,16,59,13.70
2011,10,01,17,00,13.70
2011,10,01,17,01,13.70
2011,10,01,17,02,13.60
2011,10,01,17,03,13.70
2011,10,01,17,04,13.70
2011,10,01,17,05,13.70
2011,10,01,17,06,13.70
2011,10,01,17,07,13.80
2011,10,01,17,08,13.90
2011,10,01,17,09,13.90
2011,10,01,17,10,14.00
2011,10,01,17,11,14.00
2011,10,01,17,12,14.00
2011,10,01,17,13,14.00
2011,10,01,17,14,14.00
2011,10,01,17,15,13.90
2011,10,01,17,16,13.90
2011,10,01,17,17,13.90
2011,10,01,17,18,13.90
2011,10,01,17,19,13.80
2011,10,01,17,20,13.70
2011,10,01,17,21,13.70
2011,10,01,17,22,13.70
2011,10,01,17,23,13.60
2011,10,01,17,24,13.60
2011,10,01,17,25,13.60
2011,10,01,17,26,13.60
2011,10,01,17,27,13.50
2011,10,01,17,28,13.40
2011,10,01,17,29,13.40
2011,10,01,17,30,13.40
2011,10,01,17,31,13.40
2011,10,01,17,32,13.30
2011,10,01,17,33,13.30
2011,10,01,17,34,13.30
2011,10,01,17,35,13.30
2011,10,01,17,36,13.30
2011,10,01,17,37,13.20
2011,10,01,17,38,13.10
2011,10,01,17,39,13.10
2011,10,01,17,40,13.10
2011,10,01,17,41,13.00
2011,10,01,17,42,13.00
2011,10,01,17,43,13.00
2011,10,01,17,44,13.00
2011,10,01,17,45,13.00
2011,10,01,17,46,13.00
2011,10,01,17,47,13.00
2011,10,01,17,48,13.00
2011,10,01,17,49,13.00
2011,10,01,17,50,13.00
2011,10,01,17,51,13.00
2011,10,01,17,52,13.00
